OBJECT K, 66004

Orbit data source: Space-Track

You're viewing an Uncataloged Satellite

Recently launched and/or uncataloged satellites may have evolving metadata. Metadata may include but not limited to: Owner, Maufacturer, Bus, Motor, and Mission.

OBJECT K, 66004 is a satellite owned by CASC (CN) in LEO that was launched on Thu, 16 Oct 2025 UTC launched from the Wenchang Satellite Launch Center (WSC). Unknown objects in Earth's orbit typically refer to objects detected orbiting the Earth but have not yet been identified or cataloged. These objects could be anything from previously untracked satellites, spent rocket stages, debris from satellite collisions, or even natural meteoroids temporarily captured by Earth's gravity.

Loading next visibility...
Identifier
66004, 2025-231K
Orbit
LEO
Country
Flag of CNCN / PRC
Related business
Manufacturer
CALT
Mission
Spacecraft
Bus & Motor
CZ-8A STAGE 2, Unknown motor
Mass
~2,800 kg wet, ~2,800 kg dry
Launch date (UTC)
2025-10-16 (4 weeks ago)
Launch vehicle
Unknown
Launch site
Wenchang Satellite Launch Center (WSC)
Object type
Unknown
Shape & HBR
Unknown shape, 1.1 m
Radar Cross Section
RCS unknown

Expand to show TLE details & history
Last TLE update: 1 day ago

TLE from 1 day ago
0 OBJECT K
1 66004U 25231K   25312.86922471  .00000089  00000-0  90644-4 0  9995
2 66004  50.0034 256.5941 0116688 167.8706 192.5061 14.30035376  3411
Epoch: 2025-11-08T20:51Z
TLE epoch observation values (Epoch: 2025-11-08T20:51:41.014Z)
Latitude
-0.00007°
Longitude
-104.6195°
Altitude
873.862 km
Speed
7.374 km/s
True Right ascension
17h 06m 22s
True Declination
0° 00' 00"
Sunlit
Object was in daylight at epoch
Visualization orbit readout
Latitude
Unknown
Longitude
Unknown
Altitude
Unknown
Speed
Unknown
Apparent Right ascension
Unknown
Apparent Declination
Unknown
Sunlit
N/A
Visualization observer readout
Local Sidereal Time
03:21:47
Azimuth
Unknown
Elevation
Unknown
Doppler factor
Unknown
Orbital elements
Apogee altitude
876.023 km
Perigee altitude
708.681 km
Semi-major axis
7,170.489 km
Eccentricity
0.01167
Inclination
50.0034°
RAAN
256.5941°
Arg. of periapsis
167.8706°
True anomaly
192.22062°
Mean anomaly
192.5061°
Eccentric anomaly
192.36296°
Mean motion
3.57454 °/min
Orbital period
100.71 mins
BSTAR
0.000090644
Loading maneuver chart data...
Computing Atmospheric mass density...
Loading historical data...
Loading historical data...
Loading historical data...
Loading historical data...
Loading historical data...
Loading historical data...
Loading historical data...

Documentation

Showing up to 5 results
|